LUDI TANCE-4 01A

Last updated on Mon Oct 13 2025 00:02:51 GMT+0000 (Coordinated Universal Time)

1 57624U 23120A 25284.78288976 -.00000197 00000+0 00000+0 0 9994 2 57624 15.2834 200.1201 0004651 61.8904 130.1725 1.00273147 8056
UTC large
Height (km)
Speed (km/s)
/
Latitude / Longitude
Inclination (degrees)
Orbital Period (minutes)
Azimuth
Elevation
Range (km)
Doppler Factor

Next 0 passes for location: London (51.5072 / 0.1276)

Sorry there are no passes over London.